Nicolò Giuliani

Chief Scout - Inter
3 Dec 2028
Sunday
Process

Personality

Adaptability (6) Ambition (4) Controversy (11) Loyalty (1) Pressure (17) Professionalism (5) Sportsmanship (19) Temperament (17)

Profile

Coaching Style Democratic
License Continental B
Determination 6
Man Management 11
Motivating 9
Discipline 14
Job Satisfaction
100%
Fatigue
0%
Role Chief Scout
Wage 66.2K p/w
Contract 14.03.2029

Performance

Behaviour Good
Training Effectiveness
51%
Player Development
80%
Injury Prevention
50%
Tactical Implementation
80%

Recent Events

Attended a recruitment meeting now
Attended a recruitment meeting now
Recommended a transfer target now
Recommended a transfer target now
Recommended a transfer target now
Recommended a transfer target now
Recommended a transfer target 7d ago
Recommended a transfer target 7d ago

Currently Monitoring

111
Player Club Status Ability Confidence Watched Last Observed Latest Vote
Alexander Isak Liverpool Active 177 / 178 40% 1 14.08.2028 -
Jérémy Doku Manchester City Active 176 / 173 40% 1 14.08.2028 -
Enzo Fernández Manchester City Active 174 / 175 40% 2 31.07.2028 -
Federico Dimarco Manchester City Active 168 / 166 40% 1 31.07.2028 -
Adam Wharton Crystal Palace Active 165 / 164 40% 1 17.07.2028 -
Tino Livramento Newcastle United Lost 169 / 166 40% 1 17.07.2028 -
Ousmane Diomande Nottingham Forest Active 159 / 162 40% 1 17.07.2028 -
Benjamin White Arsenal Active 166 / 161 40% 1 10.07.2028 -
Caoimhin Kelleher Brentford Active 160 / 157 40% 2 01.06.2028 -
Alex Meret Napoli Active 159 / 154 40% 1 01.06.2028 -
Gianluigi Donnarumma AS Roma Negotiating 166 / 173 40% 1 01.06.2028 -
Sandro Tonali Tottenham Lost 176 / 175 40% 1 31.05.2028 -
Ryan Gravenberch Liverpool Active 167 / 164 40% 1 31.05.2028 -
Omar Marmoush Manchester City Active 173 / 170 40% 1 31.05.2028 -
Daniel Banjaqui Benfica Active 123 / 129 40% 11 29.05.2028 -
Ayden Heaven Portsmouth Active 143 / 151 40% 15 29.05.2028 -
Noahkai Banks FC Augsburg Active 138 / 144 40% 8 29.05.2028 -
Bade Aluko Leicester City Active 124 / 124 40% 6 27.05.2028 -
Tobías Ramírez River Plate Active 135 / 132 40% 9 24.05.2028 -
Jan Bürger Northampton Town Active 118 / 123 40% 9 24.05.2028 -
Jorthy Mokio ADO Den Haag Active 134 / 136 40% 10 23.05.2028 -
Josh Nichols Oldham Athletic Active 122 / 125 40% 5 23.05.2028 -
Giovanni Leoni Lincoln City Active 142 / 143 40% 8 23.05.2028 -
Ezra Mayers West Ham United Active 126 / 127 40% 15 11.05.2028 -
Luka Vušković Tottenham Active 144 / 151 40% 24 10.05.2028 -
Trey Nyoni Rotherham United Active 138 / 145 40% 7 10.05.2028 -
Christos Mouzakitis Hull City Active 140 / 140 40% 4 09.05.2028 -
Josh Acheampong Everton Active 144 / 147 40% 22 26.04.2028 -
Halam Loboa Sevilla Active 127 / 130 40% 21 07.04.2028 -
Thiago Silvero Vélez Active 131 / 133 40% 4 07.04.2028 -
Jason Witsel PSV Active 122 / 127 40% 4 11.03.2028 -
Jofre Torrents Ajax Active 128 / 132 40% 4 27.02.2028 -
Eric da Silva Moreira Nottingham Forest Active 128 / 128 40% 5 24.02.2028 -
Almugera Kabar Borussia Dortmund Active 128 / 127 40% 3 15.02.2028 -
Yoram Zague Paris Saint-Germain Active 126 / 129 40% 2 10.02.2028 -
Mats Rots TSG Hoffenheim Active 125 / 134 40% 1 08.02.2028 -
Niccolò Fortini Fiorentina Active 132 / 140 40% 12 01.02.2028 -
Lucas Bergvall Tottenham Active 155 / 154 40% 8 23.01.2028 -
Moise Kean Fiorentina Active 165 / 153 40% 1 12.01.2028 -
Giacomo Raspadori Atalanta Lost 159 / 151 40% 1 12.01.2028 -
Martin Baturina Como Lost 143 / 147 40% 2 02.01.2028 -
Devyne Rensch Virtus Entella Active 144 / 145 40% 1 02.01.2028 -
Marco Carnesecchi Club America Active 153 / 153 95% 1 01.01.2028 Approve
Mao Hosoya Santos Active 134 / 135 67% 1 01.01.2028 Approve
Gabri Veiga Getafe Active 147 / 149 69% 1 01.01.2028 Approve
Riccardo Orsolini Bologna Active 161 / 154 72% 1 01.01.2028 Approve
Victor Hernandez Santa Fe Active 130 / 122 40% 9 22.12.2027 -
Malick Yalcouyé Brighton Active 127 / 134 40% 12 08.11.2027 -
Elias Baum Eintracht Frankfurt Active 132 / 133 40% 3 16.10.2027 -
Eliás Montiel Borussia Dortmund Active 138 / 138 40% 10 23.09.2027 -
Matias Siltanen Malmo FF Active 114 / 121 40% 7 09.09.2027 -
Exequiel Palacios Lazio Active 166 / 166 40% 1 30.08.2027 -
Manu Koné AS Roma Active 164 / 163 40% 1 30.08.2027 -
Wesley AS Roma Active 142 / 150 40% 21 13.07.2027 -
Nathaniel Brown Bayern Munich Active 146 / 149 40% 1 06.07.2027 -
Enzo Millot Al-Ahli Active 143 / 154 40% 1 06.07.2027 -
Tomás Pérez Porto Active 125 / 122 40% 2 20.06.2027 -
Francisco Trincão Inter Active 156 / 156 66% 1 01.06.2027 Approve
Malo Gusto Chelsea Active 155 / 149 40% 14 29.05.2027 -
Eduardo Lozano Botafogo Active 151 / 142 40% 1 22.05.2027 -
Savinho Tottenham Active 153 / 157 40% 11 18.05.2027 -
Diego Gómez Brighton Active 147 / 143 40% 21 13.05.2027 -
Kobbie Mainoo Manchester United Active 155 / 155 40% 17 07.05.2027 -
Mathys Tel Tottenham Active 141 / 148 40% 3 05.05.2027 -
Kenneth Taylor Lazio Active 145 / 156 40% 13 02.05.2027 -
Bence Dárdai VfL Wolfsburg Active 135 / 133 40% 1 21.04.2027 -
Arthur Atta Fiorentina Active 133 / 139 40% 1 08.02.2027 -
Raúl Rangel Braga Active 132 / 132 66% 1 01.01.2027 Approve
Louis Leroux FC Nantes Active 119 / 128 40% 4 29.12.2026 -
Abdoulkarim Traoré Al Ain Active 120 / 134 40% 2 29.12.2026 -
Riyad Idrissi Cagliari Active 128 / 125 40% 9 27.12.2026 -
David Ozoh Derby County Active 121 / 128 40% 5 23.12.2026 -
Andrea Pinamonti Lazio Active 129 / 131 40% 3 20.12.2026 -
Mile Svilar AS Roma Active 159 / 157 40% 2 15.12.2026 Needs More Info
Ivo Mammini Beitar Jerusalem Active 122 / 129 40% 1 11.12.2026 -
Armstrong Oko-Flex Levski Active 131 / 114 40% 1 06.12.2026 -
Sota Kitano Red Bull Salzburg Active 129 / 126 40% 1 05.12.2026 -
Nikita Stoinov Dinamo Bucharest Active 124 / 134 40% 1 26.11.2026 -
Sergi Domínguez Dinamo Zagreb Active 125 / 128 40% 3 25.11.2026 -
Elia Caprile Cagliari Active 134 / 147 40% 1 24.11.2026 -
Giorgi Kvernadze Frosinone Active 127 / 129 40% 1 17.11.2026 -
Donyell Malen AS Roma Active 145 / 145 40% 1 03.11.2026 -
Martín Ojeda Orlando City Active 129 / 131 40% 1 01.11.2026 -
Nicolò Zaniolo Udinese Active 149 / 146 40% 1 27.10.2026 -
Matheus Cunha Manchester United Active 160 / 156 40% 2 25.10.2026 -
Tyrese Campbell Sheffield United Active 120 / 129 40% 2 25.10.2026 -
Gabriel Martinelli Arsenal Active 162 / 164 40% 3 25.10.2026 -
Nico O'Reilly Manchester City Active 148 / 153 40% 6 23.10.2026 -
Nicolas Jackson Aston Villa Active 140 / 141 40% 2 23.10.2026 -
Mbekezeli Mbokazi Chicago Fire Active 112 / 121 40% 2 21.10.2026 -
Vitinha Genoa Active 126 / 133 40% 1 21.10.2026 -
Antoine Semenyo Manchester City Active 151 / 159 40% 1 21.10.2026 -
Kyriani Sabbe Club Brugge Active 122 / 124 40% 1 15.10.2026 -
Lautaro Vargas Unión de Santa Fe Active 116 / 119 40% 1 10.10.2026 -
Mohamed-Ali Cho Hull City Active 132 / 140 40% 1 08.10.2026 -
Kévin Denkey FC Cincinnati Active 123 / 122 40% 1 08.10.2026 -
Morgan Rogers Chelsea Active 156 / 156 40% 2 07.10.2026 -
Talles Magno New York City Active 139 / 127 40% 1 07.10.2026 -
John Pulskamp Sporting Kansas City Active 112 / 116 40% 1 06.10.2026 -
Caleb Yirenkyi Coventry City Active 126 / 136 40% 4 01.10.2026 -
Stefano Di Mario Virtus Entella Active 115 / 131 40% 1 28.09.2026 -
Ignacio Perruzzi San Lorenzo Active 114 / 138 40% 1 23.09.2026 -
Iván Fresneda Sporting CP Active 135 / 144 40% 1 21.09.2026 -
Mathias De Amorim Famalicao Active 135 / 138 40% 1 18.09.2026 -
James Bacca La Equidad Active 131 / 123 40% 1 16.09.2026 -
Lewis Hall Newcastle United Active 141 / 152 40% 1 30.08.2026 -
Victor Froholdt Porto Active 151 / 152 40% 1 26.08.2026 -
Rayan Cherki Manchester City Active 159 / 168 40% 1 04.08.2026 -
Hugo Ekitiké Liverpool Active 156 / 158 40% 2 03.08.2026 -
Bradley Barcola Liverpool Active 162 / 156 40% 1 01.08.2026 -
Benjamin Šeško Manchester United Active 152 / 151 40% 1 01.08.2026 -